| time (UTC) | temp C | wind direction | speed KPH | gust KPH | rain 1hr cm | rain 24hr cm | rain mn cm | humidity % | barometer mb |
| 20260506084730 | 12 | 265 | 0.0 | 3.2 | 0.00 | 0.00 | 0.00 | 88 | 1026.3 |
| 20260506084229 | 13 | 265 | 0.0 | 3.2 | 0.00 | 0.00 | 0.00 | 87 | 1026.4 |
| 20260506083731 | 13 | 273 | 0.0 | 3.2 | 0.00 | 0.00 | 0.00 | 87 | 1026.3 |
| 20260506083230 | 13 | 274 | 0.0 | 3.2 | 0.00 | 0.00 | 0.00 | 87 | 1026.3 |
| 20260506082731 | 13 | 274 | 0.0 | 3.2 | 0.00 | 0.00 | 0.00 | 87 | 1026.4 |
| 20260506082227 | 13 | 274 | 0.0 | 3.2 | 0.00 | 0.00 | 0.00 | 86 | 1026.3 |
| 20260506081726 | 13 | 274 | 0.0 | 1.6 | 0.00 | 0.00 | 0.00 | 86 | 1026.3 |
| 20260506081223 | 14 | 275 | 0.0 | 3.2 | 0.00 | 0.00 | 0.00 | 86 | 1026.2 |
| 20260506080724 | 14 | 275 | 0.0 | 3.2 | 0.00 | 0.00 | 0.00 | 86 | 1026.2 |
| 20260506080223 | 14 | 275 | 0.0 | 3.2 | 0.00 | 0.00 | 0.00 | 86 | 1026.2 |
| 20260506073217 | 14 | 277 | 0.0 | 3.2 | 0.00 | 0.00 | 0.00 | 85 | 1026.0 |
| 20260506072719 | 14 | 279 | 0.0 | 3.2 | 0.00 | 0.00 | 0.00 | 85 | 1026.1 |
| 20260506072216 | 14 | 278 | 1.6 | 4.8 | 0.00 | 0.00 | 0.00 | 85 | 1026.0 |
| 20260506071715 | 15 | 279 | 1.6 | 6.4 | 0.00 | 0.00 | 0.00 | 85 | 1026.0 |
| 20260506071215 | 15 | 276 | 1.6 | 6.4 | 0.00 | 0.00 | 0.00 | 85 | 1026.0 |
| 20260506070717 | 15 | 316 | 1.6 | 4.8 | 0.00 | 0.00 | 0.00 | 85 | 1025.9 |
| 20260506070215 | 15 | 303 | 1.6 | 4.8 | 0.00 | 0.00 | 0.00 | 85 | 1026.0 |
| 20260506062204 | 15 | 296 | 1.6 | 3.2 | 0.00 | 0.00 | 0.00 | 84 | 1025.7 |
| 20260506061703 | 15 | 300 | 1.6 | 3.2 | 0.00 | 0.00 | 0.00 | 84 | 1025.6 |
| 20260506061204 | 15 | 297 | 1.6 | 3.2 | 0.00 | 0.00 | 0.00 | 84 | 1025.5 |
| 20260506060703 | 15 | 323 | 0.0 | 4.8 | 0.00 | 0.00 | 0.00 | 84 | 1025.6 |
| 20260506060203 | 15 | 269 | 1.6 | 4.8 | 0.00 | 0.00 | 0.00 | 84 | 1025.6 |
| 20260506051155 | 15 | 305 | 1.6 | 6.4 | 0.00 | 0.00 | 0.00 | 82 | 1025.4 |
| 20260506050653 | 15 | 317 | 3.2 | 8.0 | 0.00 | 0.00 | 0.00 | 82 | 1025.4 |
| 20260506050152 | 16 | 347 | 3.2 | 8.0 | 0.00 | 0.00 | 0.00 | 81 | 1025.3 |
| 20260506044648 | 16 | 320 | 3.2 | 11.3 | 0.00 | 0.00 | 0.00 | 80 | 1025.3 |
| 20260506044145 | 17 | 277 | 1.6 | 11.3 | 0.00 | 0.00 | 0.00 | 80 | 1025.1 |
| 20260506043645 | 17 | 96 | 0.0 | 1.6 | 0.00 | 0.00 | 0.00 | 80 | 1024.9 |
| 20260506043146 | 17 | 96 | 0.0 | 1.6 | 0.00 | 0.00 | 0.00 | 80 | 1024.9 |
| 20260506042645 | 17 | 97 | 0.0 | 0.0 | 0.00 | 0.00 | 0.00 | 80 | 1024.8 |
| 20260506042145 | 17 | 96 | 0.0 | 3.2 | 0.00 | 0.00 | 0.00 | 80 | 1024.8 |
| 20260506041642 | 17 | 97 | 0.0 | 3.2 | 0.00 | 0.00 | 0.00 | 80 | 1024.7 |
| 20260506041142 | 17 | 97 | 0.0 | 1.6 | 0.00 | 0.00 | 0.00 | 80 | 1024.7 |
| 20260506040641 | 17 | 97 | 0.0 | 3.2 | 0.00 | 0.00 | 0.00 | 80 | 1024.6 |
| 20260506040142 | 17 | 98 | 1.6 | 3.2 | 0.00 | 0.00 | 0.00 | 79 | 1024.5 |
| 20260506035643 | 17 | 97 | 0.0 | 3.2 | 0.00 | 0.00 | 0.00 | 79 | 1024.4 |
| 20260506035137 | 17 | 95 | 0.0 | 3.2 | 0.00 | 0.00 | 0.00 | 79 | 1024.4 |
| 20260506034638 | 17 | 95 | 0.0 | 4.8 | 0.00 | 0.00 | 0.00 | 79 | 1024.2 |
| 20260506034138 | 17 | 95 | 1.6 | 4.8 | 0.00 | 0.00 | 0.00 | 79 | 1024.2 |
| 20260506033638 | 17 | 107 | 1.6 | 4.8 | 0.00 | 0.00 | 0.00 | 79 | 1024.1 |
| 20260506033137 | 17 | 105 | 1.6 | 4.8 | 0.00 | 0.00 | 0.00 | 79 | 1024.1 |
| 20260506032639 | 17 | 90 | 1.6 | 4.8 | 0.00 | 0.00 | 0.00 | 78 | 1024.1 |
| 20260506032133 | 17 | 128 | 1.6 | 4.8 | 0.00 | 0.00 | 0.00 | 78 | 1024.2 |
| 20260506031635 | 17 | 128 | 1.6 | 4.8 | 0.00 | 0.00 | 0.00 | 77 | 1024.1 |
| 20260506031133 | 17 | 128 | 1.6 | 6.4 | 0.00 | 0.00 | 0.00 | 77 | 1024.0 |
| 20260506030634 | 17 | 86 | 1.6 | 6.4 | 0.00 | 0.00 | 0.00 | 77 | 1023.9 |
| 20260506030133 | 17 | 96 | 1.6 | 6.4 | 0.00 | 0.00 | 0.00 | 77 | 1023.8 |
| 20260506025635 | 17 | 108 | 3.2 | 6.4 | 0.00 | 0.00 | 0.00 | 77 | 1023.8 |
| 20260506025130 | 18 | 96 | 3.2 | 8.0 | 0.00 | 0.00 | 0.00 | 76 | 1023.7 |
| 20260506024629 | 18 | 99 | 4.8 | 9.7 | 0.00 | 0.00 | 0.00 | 76 | 1023.8 |
| 20260506024130 | 18 | 93 | 3.2 | 9.7 | 0.00 | 0.00 | 0.00 | 76 | 1023.6 |
| 20260506023630 | 18 | 99 | 3.2 | 8.0 | 0.00 | 0.00 | 0.00 | 76 | 1023.7 |
| 20260506023129 | 18 | 69 | 3.2 | 8.0 | 0.00 | 0.00 | 0.00 | 76 | 1023.8 |
| 20260506022630 | 18 | 92 | 1.6 | 6.4 | 0.00 | 0.00 | 0.00 | 75 | 1023.7 |
| 20260506022125 | 18 | 69 | 1.6 | 6.4 | 0.00 | 0.00 | 0.00 | 75 | 1023.7 |
| 20260506021626 | 18 | 63 | 3.2 | 8.0 | 0.00 | 0.00 | 0.00 | 75 | 1023.7 |
| 20260506021125 | 18 | 57 | 4.8 | 9.7 | 0.00 | 0.00 | 0.00 | 74 | 1023.8 |
| 20260506020626 | 18 | 48 | 3.2 | 8.0 | 0.00 | 0.00 | 0.00 | 74 | 1023.8 |
| 20260506020123 | 19 | 87 | 1.6 | 6.4 | 0.00 | 0.00 | 0.00 | 73 | 1023.8 |
| 20260506015624 | 19 | 92 | 3.2 | 11.3 | 0.00 | 0.00 | 0.00 | 73 | 1023.8 |
| 20260506015125 | 19 | 61 | 3.2 | 12.9 | 0.00 | 0.00 | 0.00 | 72 | 1023.8 |
| 20260506014621 | 20 | 68 | 1.6 | 12.9 | 0.00 | 0.00 | 0.00 | 72 | 1023.9 |
| 20260506014120 | 20 | 77 | 1.6 | 6.4 | 0.00 | 0.00 | 0.00 | 71 | 1023.8 |
| 20260506013620 | 20 | 72 | 3.2 | 11.3 | 0.00 | 0.00 | 0.00 | 70 | 1023.7 |
| 20260506013115 | 20 | 46 | 4.8 | 11.3 | 0.00 | 0.00 | 0.00 | 69 | 1023.8 |
| 20260506012613 | 21 | 78 | 4.8 | 11.3 | 0.00 | 0.00 | 0.00 | 69 | 1023.8 |
| 20260506012113 | 21 | 136 | 3.2 | 11.3 | 0.00 | 0.00 | 0.00 | 69 | 1023.8 |
| 20260506011615 | 21 | 85 | 4.8 | 11.3 | 0.00 | 0.00 | 0.00 | 70 | 1023.7 |
| 20260506011113 | 20 | 70 | 4.8 | 12.9 | 0.00 | 0.00 | 0.00 | 70 | 1023.7 |
| 20260506010613 | 20 | 84 | 4.8 | 12.9 | 0.00 | 0.00 | 0.00 | 70 | 1023.7 |
| 20260506010108 | 21 | 72 | 3.2 | 9.7 | 0.00 | 0.00 | 0.00 | 68 | 1023.7 |
| 20260506005608 | 21 | 76 | 3.2 | 8.0 | 0.00 | 0.00 | 0.00 | 68 | 1023.7 |
| 20260506005107 | 21 | 46 | 3.2 | 11.3 | 0.00 | 0.00 | 0.00 | 69 | 1023.8 |
| 20260506004607 | 21 | 81 | 4.8 | 12.9 | 0.00 | 0.00 | 0.00 | 69 | 1023.8 |
| 20260506004107 | 21 | 82 | 4.8 | 12.9 | 0.00 | 0.00 | 0.00 | 69 | 1023.8 |
| 20260506003607 | 21 | 24 | 3.2 | 12.9 | 0.00 | 0.00 | 0.00 | 67 | 1023.7 |
| 20260506003103 | 21 | 48 | 3.2 | 6.4 | 0.00 | 0.00 | 0.00 | 68 | 1023.9 |
| 20260506002603 | 21 | 23 | 3.2 | 9.7 | 0.00 | 0.00 | 0.00 | 67 | 1023.7 |
| 20260506002102 | 21 | 50 | 3.2 | 12.9 | 0.00 | 0.00 | 0.00 | 69 | 1023.8 |
| 20260506001602 | 21 | 95 | 4.8 | 14.5 | 0.00 | 0.00 | 0.00 | 70 | 1023.8 |
| 20260506001101 | 20 | 49 | 3.2 | 14.5 | 0.00 | 0.00 | 0.00 | 70 | 1023.8 |
| 20260506000600 | 20 | 76 | 3.2 | 6.4 | 0.00 | 0.00 | 0.00 | 71 | 1023.8 |
| 20260506000059 | 20 | 342 | 1.6 | 4.8 | 0.00 | 0.00 | 0.00 | 70 | 1023.8 |
| 20260505235602 | 19 | 84 | 0.0 | 6.4 | 0.00 | 0.00 | 0.00 | 72 | 1023.9 |
| 20260505235058 | 19 | 33 | 1.6 | 6.4 | 0.00 | 0.00 | 0.00 | 72 | 1024.0 |
| 20260505234557 | 19 | 5 | 3.2 | 6.4 | 0.00 | 0.00 | 0.00 | 71 | 1024.0 |
| 20260505234055 | 20 | 22 | 3.2 | 9.7 | 0.00 | 0.00 | 0.00 | 71 | 1024.0 |
| 20260505233556 | 20 | 296 | 3.2 | 9.7 | 0.00 | 0.00 | 0.00 | 70 | 1024.1 |
| 20260505233053 | 20 | 71 | 3.2 | 12.9 | 0.00 | 0.00 | 0.00 | 72 | 1024.2 |
| 20260505232553 | 20 | 65 | 3.2 | 12.9 | 0.00 | 0.00 | 0.00 | 71 | 1024.1 |
| 20260505232054 | 20 | 101 | 3.2 | 12.9 | 0.00 | 0.00 | 0.00 | 72 | 1024.2 |
| 20260505231551 | 20 | 90 | 1.6 | 12.9 | 0.00 | 0.00 | 0.00 | 71 | 1024.2 |
| 20260505231049 | 20 | 134 | 3.2 | 12.9 | 0.00 | 0.00 | 0.00 | 71 | 1024.3 |
| 20260505230549 | 20 | 78 | 3.2 | 12.9 | 0.00 | 0.00 | 0.00 | 72 | 1024.4 |
| 20260505230044 | 20 | 49 | 3.2 | 9.7 | 0.00 | 0.00 | 0.00 | 75 | 1024.4 |
| 20260505225543 | 19 | 355 | 3.2 | 12.9 | 0.00 | 0.00 | 0.00 | 75 | 1024.3 |
| 20260505225043 | 18 | 67 | 3.2 | 12.9 | 0.00 | 0.00 | 0.00 | 77 | 1024.5 |
| 20260505224543 | 18 | 59 | 3.2 | 11.3 | 0.00 | 0.00 | 0.00 | 76 | 1024.5 |
| 20260505224043 | 18 | 90 | 3.2 | 11.3 | 0.00 | 0.00 | 0.00 | 76 | 1024.6 |
| 20260505223544 | 18 | 342 | 1.6 | 9.7 | 0.00 | 0.00 | 0.00 | 75 | 1024.6 |
| 20260505223039 | 18 | 24 | 4.8 | 14.5 | 0.00 | 0.00 | 0.00 | 76 | 1024.6 |
| 20260505222541 | 18 | 298 | 4.8 | 14.5 | 0.00 | 0.00 | 0.00 | 76 | 1024.7 |
| 20260505222037 | 18 | 121 | 1.6 | 6.4 | 0.00 | 0.00 | 0.00 | 78 | 1024.6 |
| 20260505221538 | 17 | 46 | 0.0 | 6.4 | 0.00 | 0.00 | 0.00 | 77 | 1024.7 |
| 20260505221037 | 17 | 166 | 0.0 | 4.8 | 0.00 | 0.00 | 0.00 | 78 | 1024.8 |
| 20260505220539 | 17 | 266 | 1.6 | 6.4 | 0.00 | 0.00 | 0.00 | 77 | 1024.8 |
| 20260505220031 | 17 | 269 | 3.2 | 6.4 | 0.00 | 0.00 | 0.00 | 78 | 1024.8 |
| 20260505215530 | 17 | 230 | 3.2 | 6.4 | 0.00 | 0.00 | 0.00 | 77 | 1024.8 |
| 20260505215031 | 17 | 302 | 1.6 | 6.4 | 0.00 | 0.00 | 0.00 | 77 | 1024.8 |
| 20260505214532 | 17 | 306 | 1.6 | 6.4 | 0.00 | 0.00 | 0.00 | 76 | 1024.8 |
| 20260505214031 | 17 | 254 | 3.2 | 16.1 | 0.00 | 0.00 | 0.00 | 76 | 1024.8 |
| 20260505213532 | 17 | 321 | 1.6 | 16.1 | 0.00 | 0.00 | 0.00 | 77 | 1024.9 |
| 20260505213029 | 17 | 77 | 1.6 | 6.4 | 0.00 | 0.00 | 0.00 | 77 | 1024.9 |
| 20260505212526 | 17 | 19 | 1.6 | 6.4 | 0.00 | 0.00 | 0.00 | 77 | 1024.9 |
| 20260505212028 | 17 | 326 | 1.6 | 6.4 | 0.00 | 0.00 | 0.00 | 77 | 1024.9 |
| 20260505211527 | 17 | 296 | 1.6 | 6.4 | 0.00 | 0.00 | 0.00 | 77 | 1024.8 |
| 20260505211025 | 17 | 300 | 1.6 | 6.4 | 0.00 | 0.00 | 0.00 | 77 | 1024.9 |
| 20260505210526 | 17 | 279 | 3.2 | 8.0 | 0.00 | 0.00 | 0.00 | 77 | 1024.9 |
| 20260505210020 | 17 | 264 | 1.6 | 8.0 | 0.00 | 0.00 | 0.00 | 77 | 1025.0 |
| 20260505205521 | 17 | 325 | 1.6 | 8.0 | 0.00 | 0.00 | 0.00 | 78 | 1025.0 |
| 20260505205021 | 17 | 294 | 1.6 | 4.8 | 0.00 | 0.00 | 0.00 | 77 | 1024.9 |
| 20260505204522 | 17 | 267 | 3.2 | 4.8 | 0.00 | 0.00 | 0.00 | 77 | 1025.0 |
| 20260505204019 | 17 | 271 | 3.2 | 6.4 | 0.00 | 0.00 | 0.00 | 77 | 1025.1 |
| 20260505203520 | 16 | 298 | 1.6 | 6.4 | 0.00 | 0.00 | 0.00 | 78 | 1025.1 |
| 20260505203016 | 16 | 337 | 0.0 | 8.0 | 0.00 | 0.00 | 0.00 | 78 | 1025.0 |
| 20260505202515 | 16 | 254 | 0.0 | 8.0 | 0.00 | 0.00 | 0.00 | 78 | 1025.0 |
| 20260505202012 | 16 | 253 | 1.6 | 9.7 | 0.00 | 0.00 | 0.00 | 78 | 1025.0 |
| 20260505201513 | 16 | 254 | 1.6 | 9.7 | 0.00 | 0.00 | 0.00 | 78 | 1025.2 |
| 20260505201013 | 16 | 308 | 1.6 | 8.0 | 0.00 | 0.00 | 0.00 | 78 | 1025.1 |
| 20260505200514 | 16 | 0 | 1.6 | 9.7 | 0.00 | 0.00 | 0.00 | 79 | 1025.1 |
| 20260505200007 | 16 | 265 | 0.0 | 6.4 | 0.00 | 0.00 | 0.00 | 78 | 1025.0 |
| 20260505195511 | 16 | 244 | 1.6 | 4.8 | 0.00 | 0.00 | 0.00 | 79 | 1025.0 |
| 20260505195003 | 16 | 252 | 1.6 | 4.8 | 0.00 | 0.00 | 0.00 | 79 | 1025.1 |
| 20260505194501 | 16 | 257 | 1.6 | 6.4 | 0.00 | 0.00 | 0.00 | 80 | 1025.1 |
| 20260505194001 | 16 | 265 | 1.6 | 6.4 | 0.00 | 0.00 | 0.00 | 79 | 1025.2 |
| 20260505193456 | 16 | 257 | 1.6 | 4.8 | 0.00 | 0.00 | 0.00 | 80 | 1025.2 |
| 20260505192956 | 16 | 257 | 3.2 | 6.4 | 0.00 | 0.00 | 0.00 | 79 | 1025.3 |
| 20260505192454 | 16 | 257 | 3.2 | 6.4 | 0.00 | 0.00 | 0.00 | 80 | 1025.2 |
| 20260505191955 | 16 | 270 | 3.2 | 6.4 | 0.00 | 0.00 | 0.00 | 80 | 1025.3 |
| 20260505191455 | 16 | 261 | 1.6 | 6.4 | 0.00 | 0.00 | 0.00 | 80 | 1025.2 |
| 20260505190955 | 16 | 234 | 1.6 | 6.4 | 0.00 | 0.00 | 0.00 | 79 | 1025.1 |
| 20260505190448 | 16 | 230 | 3.2 | 8.0 | 0.00 | 0.00 | 0.00 | 79 | 1025.1 |
| 20260505185949 | 16 | 218 | 3.2 | 9.7 | 0.00 | 0.00 | 0.00 | 80 | 1025.2 |
| 20260505185447 | 16 | 112 | 1.6 | 9.7 | 0.00 | 0.00 | 0.00 | 80 | 1025.2 |
| 20260505184948 | 16 | 258 | 1.6 | 4.8 | 0.00 | 0.00 | 0.00 | 80 | 1025.1 |
| 20260505184447 | 15 | 257 | 1.6 | 6.4 | 0.00 | 0.00 | 0.00 | 80 | 1025.1 |
| 20260505183948 | 15 | 263 | 3.2 | 6.4 | 0.00 | 0.00 | 0.00 | 81 | 1025.2 |
| 20260505183446 | 15 | 259 | 3.2 | 6.4 | 0.00 | 0.00 | 0.00 | 81 | 1025.1 |
| 20260505182945 | 15 | 273 | 3.2 | 6.4 | 0.00 | 0.00 | 0.00 | 81 | 1025.2 |
| 20260505182445 | 15 | 277 | 1.6 | 6.4 | 0.00 | 0.00 | 0.00 | 81 | 1025.2 |
| 20260505181945 | 15 | 287 | 3.2 | 9.7 | 0.00 | 0.00 | 0.00 | 81 | 1025.3 |
| 20260505181445 | 15 | 254 | 3.2 | 9.7 | 0.00 | 0.00 | 0.00 | 81 | 1025.2 |
| 20260505180940 | 15 | 279 | 1.6 | 4.8 | 0.00 | 0.00 | 0.00 | 81 | 1025.1 |
| 20260505180437 | 15 | 282 | 3.2 | 6.4 | 0.00 | 0.00 | 0.00 | 81 | 1025.1 |
| 20260505175938 | 15 | 282 | 3.2 | 6.4 | 0.00 | 0.00 | 0.00 | 81 | 1025.1 |
| 20260505175437 | 15 | 10 | 1.6 | 4.8 | 0.00 | 0.00 | 0.00 | 81 | 1025.1 |
| 20260505174937 | 15 | 42 | 1.6 | 4.8 | 0.00 | 0.00 | 0.00 | 80 | 1025.1 |
| 20260505174436 | 15 | 0 | 1.6 | 4.8 | 0.00 | 0.00 | 0.00 | 81 | 1025.0 |
| 20260505173938 | 15 | 315 | 1.6 | 4.8 | 0.00 | 0.00 | 0.00 | 81 | 1025.0 |
| 20260505173432 | 15 | 127 | 1.6 | 4.8 | 0.00 | 0.00 | 0.00 | 81 | 1025.0 |
| 20260505172934 | 15 | 126 | 1.6 | 4.8 | 0.00 | 0.00 | 0.00 | 82 | 1025.0 |
| 20260505172432 | 15 | 119 | 0.0 | 3.2 | 0.00 | 0.00 | 0.00 | 82 | 1025.0 |
| 20260505171932 | 15 | 232 | 1.6 | 6.4 | 0.00 | 0.00 | 0.00 | 82 | 1024.9 |
| 20260505171433 | 15 | 232 | 1.6 | 8.0 | 0.00 | 0.00 | 0.00 | 82 | 1025.0 |
| 20260505170933 | 15 | 161 | 1.6 | 8.0 | 0.00 | 0.00 | 0.00 | 83 | 1025.0 |
| 20260505170429 | 15 | 288 | 1.6 | 6.4 | 0.00 | 0.00 | 0.00 | 82 | 1024.9 |
| 20260505165928 | 14 | 131 | 1.6 | 6.4 | 0.00 | 0.00 | 0.00 | 83 | 1025.0 |
| 20260505165430 | 14 | 74 | 1.6 | 4.8 | 0.00 | 0.00 | 0.00 | 83 | 1024.9 |
| 20260505164929 | 14 | 211 | 1.6 | 4.8 | 0.00 | 0.00 | 0.00 | 84 | 1024.9 |
| 20260505164428 | 14 | 264 | 0.0 | 3.2 | 0.00 | 0.00 | 0.00 | 84 | 1024.9 |
| 20260505163929 | 14 | 264 | 0.0 | 3.2 | 0.00 | 0.00 | 0.00 | 84 | 1024.8 |
| 20260505163425 | 13 | 265 | 0.0 | 3.2 | 0.00 | 0.00 | 0.00 | 85 | 1024.9 |
| 20260505162925 | 13 | 265 | 0.0 | 3.2 | 0.00 | 0.00 | 0.00 | 85 | 1024.8 |
| 20260505162425 | 13 | 265 | 1.6 | 6.4 | 0.00 | 0.00 | 0.00 | 86 | 1024.8 |
| 20260505161924 | 13 | 265 | 1.6 | 6.4 | 0.00 | 0.00 | 0.00 | 86 | 1024.9 |
| 20260505161424 | 13 | 267 | 1.6 | 4.8 | 0.00 | 0.00 | 0.00 | 86 | 1024.8 |
| 20260505160924 | 13 | 279 | 1.6 | 6.4 | 0.00 | 0.00 | 0.00 | 86 | 1024.9 |
| 20260505160425 | 13 | 279 | 1.6 | 6.4 | 0.00 | 0.00 | 0.00 | 86 | 1024.9 |
| 20260505152919 | 12 | 277 | 1.6 | 4.8 | 0.00 | 0.00 | 0.00 | 88 | 1024.8 |
| 20260505152418 | 12 | 277 | 1.6 | 6.4 | 0.00 | 0.00 | 0.00 | 87 | 1024.7 |
| 20260505151920 | 12 | 279 | 1.6 | 6.4 | 0.00 | 0.00 | 0.00 | 88 | 1024.8 |
| 20260505151414 | 12 | 309 | 1.6 | 4.8 | 0.00 | 0.00 | 0.00 | 88 | 1024.8 |
| 20260505150912 | 12 | 237 | 0.0 | 3.2 | 0.00 | 0.00 | 0.00 | 88 | 1024.7 |
| 20260505150412 | 12 | 219 | 1.6 | 3.2 | 0.00 | 0.00 | 0.00 | 88 | 1024.7 |
| 20260505140356 | 12 | 223 | 0.0 | 3.2 | 0.00 | 0.00 | 0.00 | 89 | 1024.2 |
| 20260505124840 | 12 | 269 | 1.6 | 6.4 | 0.00 | 0.00 | 0.00 | 89 | 1023.8 |
| 20260505124340 | 12 | 222 | 3.2 | 6.4 | 0.00 | 0.00 | 0.00 | 89 | 1023.8 |
| 20260505123841 | 12 | 269 | 1.6 | 6.4 | 0.00 | 0.00 | 0.00 | 89 | 1023.8 |
| 20260505123338 | 12 | 234 | 1.6 | 6.4 | 0.00 | 0.00 | 0.00 | 89 | 1023.8 |
| 20260505122836 | 12 | 231 | 1.6 | 4.8 | 0.00 | 0.00 | 0.00 | 89 | 1023.9 |
| 20260505122336 | 12 | 238 | 1.6 | 4.8 | 0.00 | 0.00 | 0.00 | 89 | 1023.8 |
| 20260505121832 | 12 | 235 | 1.6 | 6.4 | 0.00 | 0.00 | 0.00 | 89 | 1023.9 |
| 20260505121332 | 12 | 227 | 3.2 | 6.4 | 0.00 | 0.00 | 0.00 | 89 | 1023.8 |
| 20260505120833 | 12 | 229 | 3.2 | 6.4 | 0.00 | 0.00 | 0.00 | 89 | 1023.8 |
| 20260505120332 | 12 | 211 | 3.2 | 6.4 | 0.00 | 0.00 | 0.00 | 89 | 1023.6 |
| 20260505115829 | 12 | 265 | 3.2 | 6.4 | 0.00 | 0.00 | 0.00 | 89 | 1023.7 |
| 20260505115330 | 12 | 259 | 1.6 | 4.8 | 0.00 | 0.00 | 0.00 | 88 | 1023.7 |
| 20260505114824 | 12 | 269 | 1.6 | 6.4 | 0.00 | 0.00 | 0.00 | 88 | 1023.7 |
| 20260505114324 | 12 | 213 | 3.2 | 6.4 | 0.00 | 0.00 | 0.00 | 88 | 1023.7 |
| 20260505113824 | 12 | 219 | 3.2 | 6.4 | 0.00 | 0.00 | 0.00 | 88 | 1023.6 |
| 20260505113325 | 12 | 243 | 1.6 | 8.0 | 0.00 | 0.00 | 0.00 | 88 | 1023.7 |
| 20260505112824 | 12 | 161 | 1.6 | 8.0 | 0.00 | 0.00 | 0.00 | 88 | 1023.6 |
| 20260505112324 | 12 | 223 | 1.6 | 8.0 | 0.00 | 0.00 | 0.00 | 88 | 1023.6 |
| 20260505111823 | 12 | 238 | 1.6 | 6.4 | 0.00 | 0.00 | 0.00 | 88 | 1023.6 |
| 20260505111321 | 12 | 207 | 1.6 | 6.4 | 0.00 | 0.00 | 0.00 | 88 | 1023.5 |
| 20260505110818 | 12 | 184 | 1.6 | 6.4 | 0.00 | 0.00 | 0.00 | 88 | 1023.4 |
| 20260505110318 | 12 | 206 | 0.0 | 4.8 | 0.00 | 0.00 | 0.00 | 88 | 1023.5 |
| 20260505101807 | 12 | 176 | 1.6 | 6.4 | 0.00 | 0.00 | 0.00 | 89 | 1023.2 |
| 20260505101308 | 12 | 142 | 1.6 | 6.4 | 0.00 | 0.00 | 0.00 | 89 | 1023.2 |
| 20260505100807 | 12 | 146 | 1.6 | 6.4 | 0.00 | 0.00 | 0.00 | 89 | 1023.1 |
| 20260505100308 | 12 | 145 | 0.0 | 4.8 | 0.00 | 0.00 | 0.00 | 89 | 1023.3 |
| 20260505095805 | 12 | 145 | 0.0 | 3.2 | 0.00 | 0.00 | 0.00 | 89 | 1023.1 |
| 20260505095307 | 12 | 145 | 0.0 | 3.2 | 0.00 | 0.00 | 0.00 | 89 | 1023.2 |
| 20260505094800 | 12 | 150 | 0.0 | 1.6 | 0.00 | 0.00 | 0.00 | 89 | 1023.1 |
| 20260505094300 | 12 | 147 | 0.0 | 1.6 | 0.00 | 0.00 | 0.00 | 89 | 1023.0 |
| 20260505093800 | 12 | 147 | 0.0 | 3.2 | 0.00 | 0.00 | 0.00 | 89 | 1023.0 |
| 20260505093300 | 12 | 146 | 0.0 | 3.2 | 0.00 | 0.00 | 0.00 | 89 | 1022.9 |
| 20260505092759 | 12 | 146 | 0.0 | 1.6 | 0.00 | 0.00 | 0.00 | 89 | 1022.9 |
| 20260505092301 | 12 | 148 | 0.0 | 3.2 | 0.00 | 0.00 | 0.00 | 89 | 1022.9 |
| 20260505091758 | 12 | 147 | 0.0 | 3.2 | 0.00 | 0.00 | 0.00 | 89 | 1022.9 |
| 20260505091255 | 12 | 147 | 1.6 | 4.8 | 0.00 | 0.00 | 0.00 | 89 | 1022.9 |
| 20260505090756 | 11 | 147 | 1.6 | 4.8 | 0.00 | 0.00 | 0.00 | 89 | 1022.9 |
| 20260505090256 | 11 | 142 | 0.0 | 4.8 | 0.00 | 0.00 | 0.00 | 89 | 1022.9 |
| 20260505085754 | 11 | 187 | 0.0 | 3.2 | 0.00 | 0.00 | 0.00 | 89 | 1022.9 |
| 20260505085254 | 11 | 186 | 0.0 | 3.2 | 0.00 | 0.00 | 0.00 | 89 | 1022.9 |